Terminal Aerodrome Forecast
Issued by NWS Paducah, KY

Home | Current Version | Previous Version | Text Only | Print | Product List | Glossary On
Versions: 1 2 3 4 5 6 7 8 9 10 11 12
775
FTUS43 KPAH 231720
TAFPAH
TAF
KPAH 231720Z 2318/2418 02014G23KT P6SM SCT040 BKN070
     FM232300 02010KT P6SM FEW070
     FM240300 01005KT P6SM SKC=

USA.gov is the U.S. government's official web portal to all federal, state and local government web resources and services.